SCP
0 0 0 0 0 -0 -0 0 0 0 0 0 0 0 0 0 0 0 0 0 0 0 0 0 0 0 0 0 0 0 0 0 0 0 0 0 0 0 0 0 0 0 0 0 0 0 0 0 0
0 0 0 0 0 -0 0 0 0 0 0 0 0 0 0 0 0 0 0 0 0 0 0 0 0 0 0 0 0 0 0 0 0 0 0 0 0 0 0 0 0 0 0 0 0 0 0 0 0
0 0 0 0 0 0 0 0 0 0 0 0 0 0 0 0 0 0 0 0 0 0 0 0 0 0 0 0 0 0 0 0 0 0 0 0 0 0 0 0 0 0 0 0 0 0 0 0 0
0 0 0 0 0 0 0 0 0 0 0 0 0 0 0 0 0 0 0 0 0 0 0 0 0 0 0 0 0 0 0 0 0 0 0 0 0 0 0 0 0 0 0 0 0 0 0 0 0
0 0 0 0 0 0 0 0 0 0 0 0 0 0 0 0 0 0 0 0 0 0 0 0 0 0 0 0 0 0 0 0 0 0 0 0 0 0 0 0 0 0 0 0 0 0 0 0 0
0 0 0 0 0 0 0 0 0 0 0 0 0 0 0 0 0 0 0 0 0 0 0 0 0 0 0 0 0 0 0 0 0 0 0 0 0 0 0 0 0 0 0 0 0 0 0 0 0
0 0 0 0 0 0 0 0 0 0 0 0 0 0 0 0 0 0 0 0 0 0 0 0 0 0 0 0 0 0 0 0 0 0 0 0 0 0 0 0 0 0 0 0 0 0 0 0 0
0 0 0 0 0 0 0 0 0 0 0 0 0 0 0 0 0 0 0 0 -0 -0 0 0 0 0 0 0 0 0 0 0 0 0 0 0 0 0 0 0 0 0 0 0 0 0 0 0 0
-0 -0 0 0 0 0 0 0 0 0 0 0 0 0 0 0 0 0 0 0 0 0 0 0 0 0 0 0 0 0 0 0 0 0 0 0 0 0 0 0 0 0 0 0 0 0 0 0 0
-0 -0 0 0 0 0 0 0 0 0 0 0 0 0 0 0 0 0 0 0 0 0 0 0 0 0 0 0 0 0 0 0 0 0 0 0 0 0 0 0 0 0 0 0 0 0 0 0 0
0 0 0 0 0 0 0 0 0 0 0 0 0 0 0 0 0 0 0 0 0 0 0 0 0 0 0 0 0 0 0 0 0 0 0 0 0 0 0 0 0 0 0 0 0 0 0 0 0
0 0 0 0 0 0 0 0 0 0 0 0 0 0 0 0 0 0 0 0 0 0 0 0 0 0 0 0 0 0 0 0 0 0 0 0 0 0 0 0 0 0 0 0 0 0 0 0 0
0 0 0 0 0 0 0 0 0 0 0 0 0 0 0 0 0 0 0 0 0 0 0 0 0 0 0 0 0 0 0 0 0 0 0 0 0 0 0 0 0 0 0 0 0 0 0 0 0
0 0 0 0 0 0 0 0 0 0 0 0 0 0 0 0 0 0 0 0 0 0 0 0 0 0 0 0 0 0 0 0 0 0 0 0 0 0 0 0 0 0 0 0 0 0 0 0 0
0 0 0 0 0 0 0 0 0 0 0 0 0 0 0 0 0 0 0 0 0 0 0 0 0 0 0 0 0 0 0 0 0 0 0 0 0 0 0 0 0 0 0 0 0 0 0 0 0
0 0 0 0 0 0 0 0 0 0 0 0 0 0 0 0 0 0 0 0 0 0 0 0 0 0 0 0 0 0 0 0 0 0 0 0 0 0 0 0 0 0 0 0 0 0 0 0 0
0 0 0 0 0 0 0 0 0 0 0 0 0 0 0 0 0 0 0 0 0 0 0 0 0 0 0 0 0 0 0 0 0 0 0 0 0 0 0 0 0 0 0 0 0 0 0 0 0
0 0 0 0 0 0 0 0 0 0 0 0 0 0 0 0 0 0 0 0 0 0 0 0 0 0 0 0 0 0 0 0 0 0 0 0 0 0 0 0 0 0 0 0 0 0 0 0 0
0 0 0 0 0 0 0 0 0 0 0 0 0 0 0 0 0 0 0 0 0 0 0 0 0 0 0 0 0 0 0 0 0 0 0 0 0 0 0 0 0 0 0 0 0 0 0 0 0
0 0 0 0 0 0 0 0 0 0 0 0 0 0 0 0 0 0 0 0 0 0 0 0 0 0 0 0 0 0 0 0 0 0 0 0 0 0 0 0 0 0 0 0 0 0 0 0 0
0 0 0 0 0 0 0 0 0 0 0 0 0 0 0 0 0 0 0 0 0 0 0 0 0 0 0 0 0 0 0 0 0 0 0 0 0 0 0 0 0 0 0 0 0 0 0 0 0
0 0 0 0 0 0 0 0 0 0 0 0 0 0 0 0 0 0 0 0 0 0 0 0 0 0 0 0 0 0 0 0 0 0 0 0 0 0 0 0 0 0 0 0 0 0 0 0 0
0 0 0 0 0 0 0 0 0 0 0 0 0 0 0 0 0 0 0 0 0 0 0 0 0 0 0 0 0 0 0 0 0 0 0 0 0 0 0 0 0 0 0 0 0 0 0 0 0
0 0 0 0 0 0 0 0 0 0 0 0 0 0 0 0 0 0 0 0 0 0 0 0 0 0 0 0 0 0 0 0 0 0 0 0 0 0 0 0 0 0 0 0 0 0 0 0 0
0 0 0 0 0 0 0 0 0 0 0 0 0 0 0 0 0 0 0 0 0 0 0 0 0 0 0 0 0 0 0 0 0 0 0 0 0 0 0 0 0 0 0 0 0 0 0 0 0
0 0 0 0 0 0 0 0 0 0 0 0 0 0 0 0 0 0 0 0 0 0 0 0 0 0 0 0 0 0 0 0 0 0 0 0 0 0 0 0 0 0 0 0 0 0 0 0 0
0 0 0 0 0 0 0 0 0 0 0 0 0 0 0 0 0 0 0 0 0 0 0 0 0 0 0 0 0 0 0 0 0 0 0 0 0 0 0 0 0 0 0 0 0 0 0 0 0
0 0 0 0 0 0 0 0 0 0 0 0 0 0 0 0 0 0 0 0 0 0 0 0 0 0 0 0 0 0 0 0 0 0 0 0 0 0 0 0 0 0 0 0 0 0 0 0 0
0 0 0 0 0 0 0 0 0 0 0 0 0 0 0 0 0 0 0 0 0 0 0 0 0 0 0 0 0 0 0 0 0 0 0 0 0 0 0 0 0 0 0 0 0 0 0 0 0
0 0 0 0 0 0 0 0 0 0 0 0 0 0 0 0 0 0 0 0 0 0 0 0 0 0 0 0 0 0 0 0 0 0 0 0 0 0 0 0 0 0 0 0 0 0 0 0 0
Wind_Speed
4 4 2 2 6 7 4 3 2 3 4 4 7 8 7 5 3 3 1 4 4 3 2 5 8 9 10 11 12 12 13 14 14 13 14 14 13 13 14 14 13 14 14 15 14 15 15 15 15
3 4 2 4 7 5 3 3 4 3 5 5 7 7 7 5 4 5 3 3 4 4 3 4 8 9 10 11 11 12 12 13 13 13 13 13 13 13 13 13 13 13 14 14 14 14 15 15 14
3 2 4 5 5 4 2 1 5 5 4 3 5 5 5 3 4 4 3 6 5 4 3 4 9 9 9 10 10 11 11 12 12 12 12 12 12 12 12 12 12 13 13 13 14 14 14 14 14
2 3 5 6 4 1 4 4 6 6 4 6 5 6 5 4 4 5 7 7 5 3 2 4 8 8 8 9 10 10 10 10 10 11 11 11 11 11 12 11 12 12 12 13 13 13 13 13 12
3 5 7 5 3 2 3 5 4 4 3 5 5 5 4 4 7 9 8 6 5 3 2 3 7 8 8 8 8 9 9 9 9 9 9 10 10 10 11 10 11 11 11 11 11 12 12 11 11
5 5 6 2 2 3 3 3 5 7 6 5 5 5 3 3 7 7 7 5 4 3 2 2 6 7 7 7 7 7 8 8 8 8 8 9 9 9 9 9 9 10 10 10 10 10 10 9 9
5 5 4 3 2 2 3 3 4 5 6 4 4 5 2 2 4 6 6 5 4 3 3 2 2 3 5 6 6 6 6 6 7 7 7 8 8 8 8 8 8 8 8 8 8 8 8 7 7
5 6 4 2 3 2 4 4 3 5 5 5 5 7 5 5 7 7 6 5 3 3 2 2 2 2 2 2 4 5 5 5 5 6 6 6 6 6 7 6 6 7 7 7 7 6 6 6 5
4 6 3 4 5 3 5 5 3 3 6 3 3 4 6 11 10 7 5 3 2 2 1 1 1 1 1 1 1 2 3 3 3 3 4 4 3 3 3 4 4 5 5 5 5 4 4 4 3
5 4 4 4 5 6 6 5 5 5 4 3 6 7 11 12 10 8 6 6 4 3 2 1 1 1 0 0 1 1 1 2 2 2 2 2 2 2 2 2 2 2 2 3 3 3 2 2 1
3 4 3 2 4 7 7 5 3 8 3 6 10 13 13 11 8 7 6 5 5 4 3 2 2 1 0 0 1 1 1 1 1 1 1 1 1 1 1 1 2 2 1 1 1 1 1 1 1
3 1 3 3 5 6 7 6 4 4 4 7 12 15 14 12 9 8 8 6 4 3 4 3 3 2 1 1 0 0 0 0 0 0 0 1 1 1 1 0 1 0 0 0 0 0 0 0 1
3 1 2 4 7 7 7 5 5 2 6 11 12 13 12 11 9 6 5 5 4 4 4 4 3 3 2 1 1 0 0 0 0 0 0 1 1 1 0 1 1 1 0 0 0 0 1 1 1
2 4 5 6 6 4 7 4 4 3 9 12 12 11 11 11 9 7 6 6 6 6 5 4 4 4 3 2 1 1 0 1 0 1 1 1 1 1 1 1 1 1 1 1 1 1 1 1 1
5 7 7 4 4 3 7 4 1 6 10 11 10 9 9 8 8 8 8 7 7 6 5 5 5 4 3 3 2 1 1 1 1 1 1 1 2 1 1 1 1 1 1 1 1 1 0 1 1
5 6 3 1 2 3 6 2 2 7 10 9 8 8 8 7 8 7 7 6 6 6 5 5 5 4 3 3 2 1 1 1 0 0 0 1 1 1 1 1 1 1 1 1 1 1 0 1 1
5 2 1 1 1 3 3 3 4 7 10 9 8 8 8 7 6 6 6 6 7 7 6 5 4 4 3 2 1 1 1 0 0 0 0 0 1 1 1 1 1 1 1 1 1 1 1 1 1
3 2 2 3 2 4 3 2 4 7 9 9 8 7 7 8 8 6 6 6 6 5 5 5 4 4 3 2 1 1 1 1 1 1 0 0 0 0 1 0 1 1 1 1 1 1 1 1 1
6 4 3 2 1 4 3 3 5 7 7 8 7 7 8 8 6 5 5 6 5 5 5 5 5 4 3 2 1 1 0 0 1 1 1 1 1 1 1 0 1 0 0 1 1 1 1 1 1
5 4 2 1 2 3 2 1 3 7 9 9 9 9 8 6 5 5 6 6 6 6 6 5 5 4 4 2 2 1 1 0 0 1 2 2 1 1 0 1 0 0 0 0 1 1 1 1 1
2 5 5 4 3 4 3 3 2 4 4 5 6 7 7 9 9 8 8 7 7 7 7 6 5 5 4 3 2 2 2 2 2 2 1 2 1 1 0 0 0 1 1 1 1 2 2 2 1
3 4 5 6 5 1 2 2 6 4 5 7 8 8 9 9 9 8 8 8 9 8 6 6 5 4 4 4 3 3 2 1 1 0 1 2 2 2 1 1 0 0 0 1 1 1 2 2 1
3 3 5 5 5 3 2 1 8 1 6 10 11 10 10 9 10 10 10 10 9 8 6 6 5 4 4 4 5 4 3 2 1 0 1 1 2 2 2 1 1 1 1 1 1 1 1 1 2
7 8 8 7 6 1 2 3 7 5 8 7 8 10 10 9 9 9 8 7 6 6 6 6 6 5 4 5 5 5 4 3 2 1 0 1 1 2 2 2 1 1 1 1 1 1 0 1 1
6 8 5 4 3 5 2 3 10 8 7 8 8 9 10 9 9 8 8 8 8 8 7 7 7 6 5 5 5 5 4 4 3 2 1 0 1 1 2 2 1 1 1 1 1 1 1 0 1
5 10 9 6 5 4 1 6 9 5 4 4 5 6 7 8 8 9 9 9 9 9 8 8 8 6 6 5 5 4 4 3 2 2 1 1 1 1 1 1 1 1 1 1 1 1 1 1 0
7 4 7 8 3 0 5 7 10 2 1 1 3 5 7 8 9 9 9 8 8 8 8 9 8 7 6 6 5 4 3 3 2 2 1 1 0 0 1 1 2 2 2 2 2 2 2 2 1
5 9 7 7 6 2 4 5 6 4 3 2 3 5 6 7 7 8 8 8 7 7 7 7 7 7 6 6 5 4 3 3 3 2 2 1 1 1 1 2 2 3 3 3 3 2 2 3 3
5 5 6 6 6 7 3 8 7 7 5 5 5 5 6 7 8 7 7 7 7 7 7 7 7 6 6 5 5 4 4 3 3 3 2 1 1 2 2 2 2 3 3 3 3 3 3 4 3
4 7 8 7 4 4 5 9 5 5 4 4 4 3 4 5 6 7 7 7 7 8 7 7 7 7 6 6 5 5 4 4 4 3 2 2 2 2 2 3 3 3 3 3 4 4 4 4 4
Wind_Direction
168 150 143 86 55 51 39 9 55 71 55 47 71 75 81 61 77 123 125 123 117 107 89 103 100 95 89 85 84 82 86 89 90 91 94 96 96 97 101 100 102 105 104 103 104 105 105 105 105
155 158 103 59 73 64 13 11 74 81 131 127 78 71 70 63 64 101 119 126 114 111 94 106 105 99 93 89 88 86 87 88 89 90 93 96 95 96 99 100 100 102 103 105 106 107 106 107 107
176 154 76 66 77 124 139 112 117 110 113 84 76 64 73 92 114 129 146 127 104 98 91 114 110 105 99 94 92 91 89 90 92 92 94 97 96 96 99 101 102 104 105 106 106 106 107 107 107
126 55 53 63 62 129 151 154 137 122 68 55 84 68 61 84 128 130 127 122 109 95 89 118 117 112 105 100 97 96 94 93 94 93 93 96 95 96 101 101 101 104 105 106 106 107 107 107 108
67 72 59 50 42 60 109 139 125 95 73 65 78 81 49 32 99 116 122 120 119 106 91 113 119 116 112 108 105 103 101 98 97 96 94 94 94 94 99 102 101 102 104 106 107 107 109 112 113
62 66 75 70 64 73 111 114 97 93 91 87 81 83 55 97 113 125 120 113 112 110 92 96 121 117 115 113 110 107 106 103 101 100 98 96 95 97 99 102 105 105 106 109 111 112 112 112 115
96 86 104 120 109 113 143 105 107 117 110 110 105 93 96 129 122 116 107 101 94 91 84 57 68 101 116 116 114 109 104 100 99 99 99 99 99 99 100 102 106 108 110 112 113 113 114 112 115
116 95 86 105 136 157 137 105 108 119 110 120 114 131 166 172 127 108 96 89 87 81 75 64 52 50 56 78 112 112 107 100 96 99 102 98 95 93 96 96 104 111 116 118 117 115 114 112 115
89 79 133 178 169 168 141 123 129 93 116 127 107 137 149 133 125 116 110 102 113 143 76 79 80 66 58 54 125 109 109 97 87 82 93 83 59 55 66 89 105 114 124 130 127 125 121 108 103
81 112 195 191 174 153 142 135 141 117 118 95 83 92 119 132 140 147 157 168 182 195 211 216 191 163 81 119 66 47 50 48 47 42 48 57 55 44 54 42 76 114 130 143 141 143 127 98 81
108 153 188 163 150 133 129 133 123 128 160 171 150 142 141 145 153 167 178 182 191 193 197 201 215 213 201 346 38 33 40 49 43 40 51 51 42 25 24 16 358 0 15 56 66 62 79 114 139
108 129 142 140 122 124 135 132 117 156 192 156 146 147 150 159 172 182 184 188 181 182 203 204 201 201 214 211 308 335 26 57 39 352 108 93 41 3 354 347 318 332 2 71 90 87 39 228 218
83 84 69 100 99 107 103 109 119 122 116 121 132 145 159 169 180 187 185 180 172 190 209 210 199 197 199 194 242 201 203 203 219 237 214 178 189 247 273 271 266 264 252 218 194 213 251 255 262
94 81 77 79 87 99 109 96 98 135 128 131 145 159 172 178 179 179 182 184 186 193 201 198 197 196 186 188 199 219 213 234 242 235 237 204 191 203 223 255 258 260 240 228 218 224 242 262 255
80 73 52 49 73 108 104 62 136 149 139 146 159 168 177 184 183 190 192 190 190 189 190 191 195 186 183 186 189 183 199 192 248 263 240 211 198 197 190 229 264 261 230 208 200 232 245 251 240
56 61 61 322 84 107 113 177 195 151 150 162 171 175 184 194 197 200 193 186 182 180 185 194 190 176 183 180 169 165 157 161 254 284 291 248 212 187 169 207 263 263 207 180 185 196 229 256 247
42 95 187 277 153 120 122 192 183 161 162 176 184 185 188 197 205 203 191 184 180 182 180 182 183 172 175 167 154 133 98 70 315 298 180 76 77 154 166 208 255 244 200 198 216 186 186 215 236
178 170 186 218 212 129 143 193 173 174 176 186 192 195 192 200 209 197 187 183 178 176 175 177 177 170 150 129 105 67 55 32 16 7 335 42 62 104 153 209 264 217 181 212 205 198 191 208 224
155 160 179 220 179 129 167 191 187 180 185 193 199 200 200 207 205 184 181 177 169 171 176 180 174 170 146 135 138 138 125 22 8 344 2 29 42 56 91 19 317 249 204 220 199 172 174 196 152
136 141 153 48 78 120 139 228 212 194 202 200 199 202 200 203 199 188 184 183 182 183 187 186 180 174 172 162 154 150 132 130 328 349 13 17 17 357 124 155 301 261 246 261 205 176 174 205 171
155 173 176 159 86 55 80 337 243 226 218 215 211 206 198 200 200 195 190 195 191 191 194 192 187 182 179 162 121 95 74 48 29 7 358 348 350 350 360 105 231 253 221 249 245 202 195 215 218
214 209 159 141 112 34 105 267 274 225 228 225 219 208 204 205 200 196 194 193 199 201 193 186 182 180 174 162 154 156 153 167 202 210 314 344 4 359 359 20 137 243 242 266 268 218 213 196 210
173 95 99 99 105 67 36 161 284 223 236 237 224 215 209 204 198 197 197 196 199 190 182 179 172 175 173 167 163 157 157 163 141 102 7 354 356 357 356 11 22 352 313 298 297 281 220 203 197
118 73 57 49 65 30 239 174 273 229 220 234 223 213 206 202 198 195 193 183 186 178 172 168 166 175 171 165 161 163 165 159 141 123 36 354 352 355 359 4 357 337 328 319 304 297 265 222 208
100 93 51 19 18 252 262 207 251 246 230 222 218 207 201 193 189 184 181 181 182 178 175 166 165 171 167 162 165 171 171 165 172 177 166 105 355 347 343 354 345 330 317 325 340 359 350 310 231
160 136 151 175 203 262 286 236 256 265 261 223 206 194 186 181 182 184 187 186 184 180 172 166 167 171 167 166 170 166 164 162 167 169 157 159 201 269 339 9 8 357 357 3 19 24 2 30 25
133 145 147 123 132 133 276 284 299 299 319 153 165 167 181 182 181 183 181 180 177 174 173 171 168 167 168 171 162 157 159 158 160 153 143 140 169 130 34 36 31 19 24 26 45 44 27 40 37
135 139 106 117 139 207 285 273 254 264 246 210 176 182 187 181 179 176 173 176 174 169 165 159 162 167 165 166 168 162 158 159 156 138 136 132 110 75 63 54 46 41 37 36 47 45 38 55 41
108 96 103 109 142 150 217 265 228 222 214 205 207 197 187 179 178 175 170 168 161 154 155 157 158 155 155 158 152 147 145 145 138 133 129 114 85 70 66 63 63 60 49 45 54 49 50 60 49
152 155 143 143 182 164 168 262 269 218 212 200 209 196 178 173 169 165 160 154 154 158 158 159 159 159 159 152 143 144 138 130 125 119 107 97 84 70 70 71 69 66 59 55 61 56 53 62 58